This is the latest recevied weather packets stored in our database for station/object N1ICS-1. If no packets are shown the sender has not sent any weather packets the latest 10 day(s).
| Time | Temp. | Humidity | Pressure | Rain* | Wind** | Luminosity | Snow |
|---|---|---|---|---|---|---|---|
| 1777488902 | 15.56° C | 86% | 1011.6 hPa | 0 mm | - | 289 W/m² | - |
| 1777488602 | 15° C | 87% | 1011.4 hPa | 0 mm | - | 239 W/m² | - |
| 1777488302 | 15° C | 86% | 1011.5 hPa | 0 mm | - | 159 W/m² | - |
| 1777488002 | 15° C | 86% | 1011.6 hPa | 0 mm | - | 159 W/m² | - |
| 1777487702 | 15° C | 86% | 1011.6 hPa | 0 mm | - | 159 W/m² | - |
| 1777487402 | 15° C | 86% | 1011.6 hPa | 0 mm | - | 66 W/m² | - |
| 1777487102 | 15° C | 85% | 1011.7 hPa | 0 mm | - | 141 W/m² | - |
| 1777486801 | 15° C | 86% | 1011.6 hPa | 0 mm | - | 249 W/m² | - |
| 1777486502 | 15° C | 85% | 1011.6 hPa | 0 mm | - | 228 W/m² | - |
| 1777486202 | 15° C | 87% | 1011.6 hPa | 0 mm | - | 289 W/m² | - |
| 1777485903 | 15° C | 87% | 1011.7 hPa | 0 mm | - | 86 W/m² | - |
| 1777485602 | 15° C | 88% | 1011.6 hPa | 0 mm | - | 80 W/m² | - |
| 1777485302 | 15° C | 87% | 1011.7 hPa | 0 mm | - | 85 W/m² | - |
| 1777485002 | 15° C | 87% | 1011.6 hPa | 0 mm | - | 84 W/m² | - |
| 1777484702 | 15° C | 87% | 1011.7 hPa | 0 mm | - | 113 W/m² | - |
| 1777484401 | 15° C | 87% | 1011.5 hPa | 0 mm | - | 159 W/m² | - |
| 1777484102 | 15.56° C | 83% | 1011.7 hPa | 0 mm | - | 257 W/m² | - |
| 1777483802 | 16.11° C | 79% | 1011.7 hPa | 0 mm | - | 533 W/m² | - |
| 1777483501 | 15.56° C | 87% | 1011.7 hPa | 0 mm | - | 767 W/m² | - |
| 1777483202 | 15.56° C | 85% | 1011.7 hPa | 0 mm | - | 628 W/m² | - |
| 1777482902 | 15° C | 88% | 1012 hPa | 0 mm | - | 707 W/m² | - |
| 1777482602 | 15° C | 89% | 1012.1 hPa | 0 mm | - | 353 W/m² | - |
| 1777482301 | 14.44° C | 88% | 1012.1 hPa | 0 mm | - | 363 W/m² | - |
| 1777482002 | 15° C | 88% | 1011.9 hPa | 0 mm | - | 309 W/m² | - |
| 1777481702 | 15.56° C | 88% | 1012.2 hPa | 0 mm | - | 394 W/m² | - |
* Rain latest hour (hover to see other rain measurements)
** Current wind speed in m/s (hover to see current wind gust speed)